This demonstration page uses our WeatherBlox Daily Observations layout. Learn more.

38.88101, -77.10428

Hourly Observations for January 24, 2017

Temp ( °F °C ) Dew Point ( °F °C ) Humidity (%) Winds ( mph kmh ) Pressure ( in mb ) Visibility ( mi km ) Precip ( " mm )
12:52 am 00:52 Cloudy with Light Rain 39 3.9 37 2.8 93 93 N 15 24 29.47 998 10 16.0934 0 0.0254
1:52 am 01:52 Cloudy with Light Rain 39 3.9 37 2.8 93 93 NNW 17 28 29.46 998 5 8.0467 0.02 0.508
1:59 am 01:59 Cloudy with Light Rain 38 3.3 37 2.8 97 97 NNW 16 26 29.47 998 7 11.26538 0 0.0254
2:10 am 02:10 Cloudy with Light Rain 37 3 37 3 100 100 NNW 15 24 29.47 998 9 14.48406 0 0
2:41 am 02:41 Cloudy 39 3.9 37 2.8 93 93 NNW 16 26 29.47 998 10 16.0934 0 0.0254
2:52 am 02:52 Cloudy 39 3.9 37 2.8 93 93 NNW 14 22 29.47 998 10 16.0934 0 0.0254
3:52 am 03:52 Cloudy with Light Rain 39 3.9 37 2.8 93 93 NW 15 24 29.47 998 9 14.48406 0 0.0254
4:42 am 04:42 Cloudy with Light Rain 39 4 37 3 93 93 NNW 16 26 29.47 998 10 16.0934 0 0
4:52 am 04:52 Cloudy with Light Rain 39 3.9 37 2.8 93 93 NNW 17 28 29.47 998 10 16.0934 0.01 0.254
5:28 am 05:28 Cloudy with Light Drizzle 39 4 37 3 93 93 NW 15 24 29.5 999 10 16.0934 0 0
5:52 am 05:52 Cloudy with Light Drizzle 39 3.9 37 2.8 93 93 NNW 15 24 29.49 999 10 16.0934 0 0.0254
6:52 am 06:52 Cloudy 39 3.9 37 2.8 93 93 NW 16 26 29.5 999 10 16.0934 0 0.0254
7:52 am 07:52 Mostly Cloudy 39 3.9 36 2.2 89 89 NW 18 30 29.51 999 10 16.0934 0 0
8:52 am 08:52 Partly Cloudy 41 5 37 2.8 86 86 NNW 16 26 29.51 999 10 16.0934 0 0
9:52 am 09:52 Partly Cloudy 43 6.1 37 2.8 80 80 NNW 16 26 29.53 1000 10 16.0934 0 0
10:18 am 10:18 Mostly Cloudy 45 7 37 3 76 76 NW 15 24 29.53 1000 10 16.0934 0 0
10:52 am 10:52 Mostly Cloudy 46 7.8 37 2.8 71 71 NW 14 22 29.54 1001 10 16.0934 0 0
11:30 am 11:30 Mostly Cloudy 46 8 36 2 66 66 NW 15 24 29.53 1000 10 16.0934 0 0
11:52 am 11:52 Cloudy 47 8.3 36 2.2 66 66 NW 17 28 29.52 1000 10 16.0934 0 0
12:52 pm 12:52 Cloudy 48 8.9 35 1.7 61 61 NW 22 35 29.52 1000 10 16.0934 0 0
1:52 pm 13:52 Cloudy 48 8.9 36 2.2 63 63 NW 16 26 29.51 999 10 16.0934 0 0
2:52 pm 14:52 Cloudy 47 8.3 36 2.2 66 66 NW 21 33 29.54 1000 10 16.0934 0 0
3:52 pm 15:52 Cloudy 48 8.9 37 2.8 66 66 NW 20 31 29.55 1001 10 16.0934 0 0
4:52 pm 16:52 Mostly Cloudy 49 9.4 37 2.8 64 64 NW 14 22 29.57 1001 10 16.0934 0 0
5:52 pm 17:52 Mostly Cloudy 48 8.9 37 2.8 66 66 NW 14 22 29.59 1002 10 16.0934 0 0
6:52 pm 18:52 Mostly Cloudy 48 8.9 37 2.8 66 66 NNW 10 17 29.62 1003 10 16.0934 0 0
7:52 pm 19:52 Mostly Cloudy 48 8.9 37 2.8 66 66 NW 10 17 29.64 1004 10 16.0934 0 0
8:52 pm 20:52 Mostly Cloudy 48 8.9 38 3.3 68 68 WNW 14 22 29.65 1004 10 16.0934 0 0
9:52 pm 21:52 Cloudy 48 8.9 38 3.3 68 68 NW 10 17 29.67 1005 10 16.0934 0 0
10:15 pm 22:15 Mostly Cloudy 48 8.9 38 3.3 68 68 NW 7 11 29.65 1004 10 16.0934 0 0
10:52 pm 22:52 Partly Cloudy 47 8.3 38 3.3 71 71 NW 9 15 29.67 1005 10 16.0934 0 0
11:52 pm 23:52 Mostly Clear 48 8.9 37 2.8 66 66 WNW 16 26 29.66 1005 10 16.0934 0 0

Powered by AerisWeather